Time,TemperatureF,DewpointF,PressureIn,WindDirection,WindDirectionDegrees,WindSpeedMPH,WindSpeedGustMPH,Humidity,HourlyPrecipIn,Conditions,Clouds,dailyrainin,SoftwareType,DateUTC
2013-08-03 00:00:00,63.0,63.0,29.37,WSW,247,0.0,0.0,100,0.00,,,0.00,Rainwise IP-100,2013-08-03 04:00:00,
2013-08-03 00:01:00,63.0,63.0,29.37,WSW,247,0.0,0.0,100,0.00,,,0.00,Rainwise IP-100,2013-08-03 04:01:00,
2013-08-03 00:06:00,63.0,63.0,29.37,WSW,247,0.0,0.0,100,0.00,,,0.00,Rainwise IP-100,2013-08-03 04:06:00,
2013-08-03 00:11:00,63.0,63.0,29.37,WSW,247,0.0,0.0,100,0.00,,,0.00,Rainwise IP-100,2013-08-03 04:11:00,
2013-08-03 00:16:00,63.0,63.0,29.37,WSW,247,0.0,0.0,100,0.00,,,0.00,Rainwise IP-100,2013-08-03 04:16:00,
2013-08-03 00:21:00,63.0,63.0,29.37,WSW,247,0.0,0.0,100,0.00,,,0.00,Rainwise IP-100,2013-08-03 04:21:00,
2013-08-03 00:26:00,63.0,63.0,29.37,WSW,247,0.0,0.0,100,0.00,,,0.00,Rainwise IP-100,2013-08-03 04:26:00,
2013-08-03 00:31:00,63.0,63.0,29.37,WSW,247,0.0,0.0,100,0.00,,,0.00,Rainwise IP-100,2013-08-03 04:31:00,
2013-08-03 00:36:00,63.0,63.0,29.37,WSW,247,0.0,0.0,100,0.00,,,0.00,Rainwise IP-100,2013-08-03 04:36:00,
2013-08-03 00:41:00,63.0,63.0,29.37,WSW,247,0.0,0.0,100,0.00,,,0.00,Rainwise IP-100,2013-08-03 04:41:00,
2013-08-03 00:46:00,63.0,63.0,29.37,WSW,247,0.0,0.0,100,0.00,,,0.00,Rainwise IP-100,2013-08-03 04:46:00,
2013-08-03 00:51:00,63.0,63.0,29.37,WSW,247,0.0,0.0,100,0.00,,,0.00,Rainwise IP-100,2013-08-03 04:51:00,
2013-08-03 00:56:00,63.0,63.0,29.37,WSW,247,0.0,0.0,100,0.00,,,0.00,Rainwise IP-100,2013-08-03 04:56:00,
2013-08-03 01:01:00,63.0,63.0,29.37,WSW,247,0.0,0.0,100,0.00,,,0.00,Rainwise IP-100,2013-08-03 05:01:00,
2013-08-03 01:06:00,63.0,63.0,29.37,WSW,247,0.0,0.0,100,0.00,,,0.00,Rainwise IP-100,2013-08-03 05:06:00,
2013-08-03 01:11:00,63.0,63.0,29.37,WSW,247,0.0,0.0,100,0.00,,,0.00,Rainwise IP-100,2013-08-03 05:11:00,
2013-08-03 01:16:00,63.0,63.0,29.37,WSW,247,0.0,0.0,100,0.00,,,0.00,Rainwise IP-100,2013-08-03 05:16:00,
2013-08-03 01:21:00,63.0,63.0,29.37,WSW,247,0.0,0.0,100,0.00,,,0.00,Rainwise IP-100,2013-08-03 05:21:00,
2013-08-03 01:26:00,63.0,63.0,29.37,WSW,247,0.0,0.0,100,0.00,,,0.00,Rainwise IP-100,2013-08-03 05:26:00,
2013-08-03 01:31:00,63.0,63.0,29.37,WSW,247,0.0,0.0,100,0.00,,,0.00,Rainwise IP-100,2013-08-03 05:31:00,
2013-08-03 01:36:00,63.0,63.0,29.37,WSW,247,0.0,0.0,100,0.00,,,0.00,Rainwise IP-100,2013-08-03 05:36:00,
2013-08-03 01:41:00,63.0,63.0,29.37,WSW,247,0.0,0.0,100,0.00,,,0.00,Rainwise IP-100,2013-08-03 05:41:00,
2013-08-03 01:46:00,63.0,63.0,29.37,WSW,247,0.0,0.0,100,0.00,,,0.00,Rainwise IP-100,2013-08-03 05:46:00,
2013-08-03 01:51:00,63.0,63.0,29.37,WSW,247,0.0,0.0,100,0.00,,,0.00,Rainwise IP-100,2013-08-03 05:51:00,
2013-08-03 01:56:00,63.0,63.0,29.37,WSW,247,0.0,0.0,100,0.00,,,0.00,Rainwise IP-100,2013-08-03 05:56:00,
2013-08-03 02:01:00,63.0,63.0,29.37,WSW,247,0.0,0.0,100,0.00,,,0.00,Rainwise IP-100,2013-08-03 06:01:00,
2013-08-03 02:06:00,63.0,63.0,29.37,WSW,247,0.0,0.0,100,0.00,,,0.00,Rainwise IP-100,2013-08-03 06:06:00,
2013-08-03 02:11:00,63.0,63.0,29.37,WSW,247,0.0,0.0,100,0.00,,,0.00,Rainwise IP-100,2013-08-03 06:11:00,
2013-08-03 02:16:00,63.0,63.0,29.37,WSW,247,0.0,0.0,100,0.00,,,0.00,Rainwise IP-100,2013-08-03 06:16:00,
2013-08-03 02:21:00,63.0,63.0,29.37,WSW,247,0.0,0.0,100,0.00,,,0.00,Rainwise IP-100,2013-08-03 06:21:00,
2013-08-03 02:26:00,63.0,63.0,29.37,WSW,247,0.0,0.0,100,0.00,,,0.00,Rainwise IP-100,2013-08-03 06:26:00,
2013-08-03 02:31:00,63.0,63.0,29.37,WSW,247,0.0,0.0,100,0.00,,,0.00,Rainwise IP-100,2013-08-03 06:31:00,
2013-08-03 02:36:00,63.0,63.0,29.37,WSW,247,0.0,0.0,100,0.00,,,0.00,Rainwise IP-100,2013-08-03 06:36:00,
2013-08-03 02:41:00,60.0,60.0,29.35,SW,225,1.0,2.0,100,0.00,,,0.00,Rainwise IP-100,2013-08-03 06:41:00,
2013-08-03 02:46:00,60.0,60.0,29.35,SW,225,0.0,2.0,100,0.00,,,0.00,Rainwise IP-100,2013-08-03 06:46:00,
2013-08-03 02:51:00,60.0,60.0,29.35,SW,225,0.0,0.0,100,0.00,,,0.00,Rainwise IP-100,2013-08-03 06:51:00,
2013-08-03 02:56:00,60.0,60.0,29.35,SW,225,0.0,0.0,100,0.00,,,0.00,Rainwise IP-100,2013-08-03 06:56:00,
2013-08-03 03:01:00,60.0,60.0,29.35,SW,225,0.0,0.0,100,0.00,,,0.00,Rainwise IP-100,2013-08-03 07:01:00,
2013-08-03 03:06:00,60.0,60.0,29.35,SW,225,0.0,0.0,100,0.00,,,0.00,Rainwise IP-100,2013-08-03 07:06:00,
2013-08-03 03:11:00,60.0,60.0,29.35,SW,225,0.0,0.0,100,0.00,,,0.00,Rainwise IP-100,2013-08-03 07:11:00,
2013-08-03 03:16:00,60.0,60.0,29.35,SW,225,0.0,0.0,100,0.00,,,0.00,Rainwise IP-100,2013-08-03 07:16:00,
2013-08-03 03:21:00,59.0,59.0,29.34,SW,225,0.0,0.0,100,0.00,,,0.00,Rainwise IP-100,2013-08-03 07:21:00,
2013-08-03 03:26:00,59.0,59.0,29.33,SW,225,0.0,0.0,100,0.00,,,0.00,Rainwise IP-100,2013-08-03 07:26:00,
2013-08-03 03:31:00,59.0,59.0,29.33,SW,225,0.0,0.0,100,0.00,,,0.00,Rainwise IP-100,2013-08-03 07:31:00,
2013-08-03 03:36:00,60.0,60.0,29.33,SW,225,0.0,0.0,100,0.00,,,0.00,Rainwise IP-100,2013-08-03 07:36:00,
2013-08-03 03:41:00,60.0,60.0,29.33,SW,225,0.0,0.0,100,0.00,,,0.00,Rainwise IP-100,2013-08-03 07:41:00,
2013-08-03 03:46:00,60.0,60.0,29.33,SW,225,0.0,0.0,100,0.00,,,0.00,Rainwise IP-100,2013-08-03 07:46:00,
2013-08-03 03:51:00,60.0,60.0,29.32,East,90,3.0,4.0,100,0.00,,,0.00,Rainwise IP-100,2013-08-03 07:51:00,
2013-08-03 03:56:00,59.0,59.0,29.32,SSE,157,1.0,4.0,100,0.00,,,0.00,Rainwise IP-100,2013-08-03 07:56:00,
2013-08-03 04:01:00,59.0,59.0,29.32,East,90,3.0,4.0,100,0.00,,,0.00,Rainwise IP-100,2013-08-03 08:01:00,
2013-08-03 04:06:00,59.0,59.0,29.32,SE,135,0.0,3.0,100,0.00,,,0.00,Rainwise IP-100,2013-08-03 08:06:00,
2013-08-03 04:11:00,59.0,59.0,29.32,SE,135,0.0,1.0,100,0.00,,,0.00,Rainwise IP-100,2013-08-03 08:11:00,
2013-08-03 04:16:00,59.0,59.0,29.32,SE,135,0.0,1.0,100,0.00,,,0.00,Rainwise IP-100,2013-08-03 08:16:00,
2013-08-03 04:21:00,59.0,59.0,29.32,SE,135,0.0,1.0,100,0.00,,,0.00,Rainwise IP-100,2013-08-03 08:21:00,
2013-08-03 04:26:00,59.0,59.0,29.32,SE,135,0.0,1.0,100,0.00,,,0.00,Rainwise IP-100,2013-08-03 08:26:00,
2013-08-03 04:31:00,59.0,59.0,29.32,SE,135,0.0,1.0,100,0.00,,,0.00,Rainwise IP-100,2013-08-03 08:31:00,
2013-08-03 04:36:00,59.0,59.0,29.32,NE,45,0.0,1.0,100,0.06,,,0.01,Rainwise IP-100,2013-08-03 08:36:00,
2013-08-03 04:41:00,59.0,59.0,29.33,SW,225,5.0,5.0,100,0.06,,,0.01,Rainwise IP-100,2013-08-03 08:41:00,
2013-08-03 04:46:00,59.0,59.0,29.33,ENE,67,3.0,5.0,100,0.00,,,0.01,Rainwise IP-100,2013-08-03 08:46:00,
2013-08-03 04:51:00,59.0,59.0,29.33,ENE,67,0.0,5.0,100,0.00,,,0.01,Rainwise IP-100,2013-08-03 08:51:00,
2013-08-03 04:56:00,59.0,59.0,29.33,ENE,67,0.0,4.0,100,0.00,,,0.01,Rainwise IP-100,2013-08-03 08:56:00,
2013-08-03 05:01:00,59.0,59.0,29.33,ENE,67,2.0,2.0,100,0.00,,,0.01,Rainwise IP-100,2013-08-03 09:01:00,
2013-08-03 05:06:00,59.0,59.0,29.33,ENE,67,0.0,3.0,100,0.00,,,0.01,Rainwise IP-100,2013-08-03 09:06:00,
2013-08-03 05:11:00,59.0,59.0,29.33,ENE,67,1.0,1.0,100,0.00,,,0.01,Rainwise IP-100,2013-08-03 09:11:00,
2013-08-03 05:16:00,59.0,59.0,29.33,ENE,67,1.0,1.0,100,0.00,,,0.01,Rainwise IP-100,2013-08-03 09:16:00,
2013-08-03 05:21:00,59.0,59.0,29.31,SW,225,0.0,4.0,100,0.00,,,0.01,Rainwise IP-100,2013-08-03 09:21:00,
2013-08-03 05:26:00,59.0,59.0,29.31,SW,225,0.0,3.0,100,0.00,,,0.01,Rainwise IP-100,2013-08-03 09:26:00,
2013-08-03 05:31:00,59.0,59.0,29.31,SW,225,0.0,1.0,100,0.00,,,0.01,Rainwise IP-100,2013-08-03 09:31:00,
2013-08-03 05:36:00,60.0,60.0,29.31,SW,225,2.0,0.0,100,0.00,,,0.01,Rainwise IP-100,2013-08-03 09:36:00,
2013-08-03 05:41:00,60.0,60.0,29.31,SW,225,1.0,3.0,100,0.00,,,0.01,Rainwise IP-100,2013-08-03 09:41:00,
2013-08-03 05:46:00,60.0,60.0,29.31,SW,225,0.0,2.0,100,0.00,,,0.01,Rainwise IP-100,2013-08-03 09:46:00,
2013-08-03 05:51:00,60.0,60.0,29.32,SW,225,0.0,0.0,100,0.00,,,0.01,Rainwise IP-100,2013-08-03 09:51:00,
2013-08-03 05:52:00,60.0,60.0,29.32,SW,225,0.0,0.0,100,0.00,,,0.01,Rainwise IP-100,2013-08-03 09:52:00,
2013-08-03 05:56:00,60.0,60.0,29.32,SW,225,0.0,0.0,100,0.00,,,0.01,Rainwise IP-100,2013-08-03 09:56:00,
2013-08-03 06:01:00,60.0,60.0,29.32,SW,225,0.0,0.0,100,0.00,,,0.01,Rainwise IP-100,2013-08-03 10:01:00,
2013-08-03 06:06:00,60.0,60.0,29.32,SW,225,0.0,0.0,100,0.00,,,0.01,Rainwise IP-100,2013-08-03 10:06:00,
2013-08-03 06:11:00,60.0,60.0,29.32,SW,225,0.0,0.0,100,0.00,,,0.01,Rainwise IP-100,2013-08-03 10:11:00,
2013-08-03 06:16:00,60.0,60.0,29.32,SW,225,0.0,3.0,100,0.00,,,0.01,Rainwise IP-100,2013-08-03 10:16:00,
2013-08-03 06:21:00,60.0,60.0,29.33,SW,225,2.0,3.0,100,0.00,,,0.01,Rainwise IP-100,2013-08-03 10:21:00,
2013-08-03 06:26:00,60.0,60.0,29.33,SW,225,0.0,3.0,100,0.00,,,0.01,Rainwise IP-100,2013-08-03 10:26:00,
2013-08-03 06:31:00,60.0,60.0,29.32,SW,225,0.0,0.0,100,0.00,,,0.01,Rainwise IP-100,2013-08-03 10:31:00,
2013-08-03 06:36:00,60.0,60.0,29.32,South,180,5.0,5.0,100,0.00,,,0.01,Rainwise IP-100,2013-08-03 10:36:00,
2013-08-03 06:41:00,60.0,60.0,29.33,South,180,3.0,5.0,100,0.00,,,0.01,Rainwise IP-100,2013-08-03 10:41:00,
2013-08-03 06:46:00,60.0,60.0,29.33,South,180,2.0,6.0,100,0.00,,,0.01,Rainwise IP-100,2013-08-03 10:46:00,
2013-08-03 06:51:00,60.0,60.0,29.33,SSE,157,1.0,6.0,100,0.00,,,0.01,Rainwise IP-100,2013-08-03 10:51:00,
2013-08-03 06:56:00,60.0,60.0,29.33,SE,135,4.0,4.0,100,0.00,,,0.01,Rainwise IP-100,2013-08-03 10:56:00,
2013-08-03 07:01:00,60.0,60.0,29.33,SSE,157,3.0,6.0,100,0.00,,,0.01,Rainwise IP-100,2013-08-03 11:01:00,
2013-08-03 07:06:00,60.0,60.0,29.33,NNE,22,0.0,6.0,100,0.00,,,0.01,Rainwise IP-100,2013-08-03 11:06:00,
2013-08-03 07:11:00,60.0,60.0,29.34,SE,135,2.0,6.0,100,0.00,,,0.01,Rainwise IP-100,2013-08-03 11:11:00,
2013-08-03 07:16:00,60.0,60.0,29.34,South,180,3.0,4.0,100,0.00,,,0.01,Rainwise IP-100,2013-08-03 11:16:00,
2013-08-03 07:21:00,60.0,60.0,29.34,South,180,4.0,6.0,100,0.00,,,0.01,Rainwise IP-100,2013-08-03 11:21:00,
2013-08-03 07:26:00,60.0,60.0,29.34,SSW,202,3.0,7.0,100,0.00,,,0.01,Rainwise IP-100,2013-08-03 11:26:00,
2013-08-03 07:31:00,60.0,60.0,29.34,South,180,4.0,4.0,100,0.00,,,0.01,Rainwise IP-100,2013-08-03 11:31:00,
2013-08-03 07:36:00,60.0,60.0,29.34,South,180,1.0,5.0,100,0.00,,,0.01,Rainwise IP-100,2013-08-03 11:36:00,
2013-08-03 07:41:00,60.0,60.0,29.34,South,180,6.0,7.0,100,0.00,,,0.01,Rainwise IP-100,2013-08-03 11:41:00,
2013-08-03 07:46:00,60.0,60.0,29.34,SSE,157,4.0,7.0,100,0.00,,,0.01,Rainwise IP-100,2013-08-03 11:46:00,
2013-08-03 07:51:00,60.0,60.0,29.34,South,180,4.0,6.0,100,0.00,,,0.01,Rainwise IP-100,2013-08-03 11:51:00,
2013-08-03 07:56:00,60.0,60.0,29.34,SE,135,2.0,6.0,100,0.00,,,0.01,Rainwise IP-100,2013-08-03 11:56:00,
2013-08-03 08:01:00,60.0,60.0,29.34,SSE,157,3.0,5.0,100,0.00,,,0.01,Rainwise IP-100,2013-08-03 12:01:00,
2013-08-03 08:06:00,61.0,61.0,29.34,South,180,3.0,6.0,100,0.00,,,0.01,Rainwise IP-100,2013-08-03 12:06:00,
2013-08-03 08:11:00,61.0,61.0,29.34,SE,135,2.0,6.0,100,0.00,,,0.01,Rainwise IP-100,2013-08-03 12:11:00,
2013-08-03 08:16:00,60.0,60.0,29.34,SE,135,4.0,7.0,100,0.00,,,0.01,Rainwise IP-100,2013-08-03 12:16:00,
2013-08-03 08:21:00,61.0,61.0,29.34,ENE,67,3.0,5.0,100,0.00,,,0.01,Rainwise IP-100,2013-08-03 12:21:00,
2013-08-03 08:26:00,61.0,61.0,29.34,ENE,67,1.0,3.0,100,0.00,,,0.01,Rainwise IP-100,2013-08-03 12:26:00,
2013-08-03 08:31:00,61.0,61.0,29.34,ENE,67,1.0,3.0,100,0.00,,,0.01,Rainwise IP-100,2013-08-03 12:31:00,
2013-08-03 08:36:00,61.0,61.0,29.34,ENE,67,3.0,3.0,100,0.00,,,0.01,Rainwise IP-100,2013-08-03 12:36:00,
2013-08-03 08:41:00,62.0,62.0,29.34,NE,45,3.0,3.0,100,0.00,,,0.01,Rainwise IP-100,2013-08-03 12:41:00,
2013-08-03 08:46:00,64.0,64.0,29.34,SE,135,1.0,4.0,100,0.00,,,0.01,Rainwise IP-100,2013-08-03 12:46:00,
2013-08-03 08:51:00,64.0,64.0,29.34,SE,135,1.0,4.0,100,0.00,,,0.01,Rainwise IP-100,2013-08-03 12:51:00,
2013-08-03 08:56:00,63.0,63.0,29.35,East,90,3.0,4.0,100,0.00,,,0.01,Rainwise IP-100,2013-08-03 12:56:00,
2013-08-03 09:01:00,63.0,63.0,29.35,East,90,3.0,4.0,100,0.00,,,0.01,Rainwise IP-100,2013-08-03 13:01:00,
2013-08-03 09:06:00,63.0,63.0,29.35,East,90,3.0,4.0,100,0.00,,,0.01,Rainwise IP-100,2013-08-03 13:06:00,
2013-08-03 09:11:00,63.0,63.0,29.35,East,90,3.0,4.0,100,0.00,,,0.01,Rainwise IP-100,2013-08-03 13:11:00,
2013-08-03 09:16:00,63.0,63.0,29.35,East,90,3.0,4.0,100,0.00,,,0.01,Rainwise IP-100,2013-08-03 13:16:00,
2013-08-03 09:21:00,63.0,63.0,29.35,East,90,3.0,4.0,100,0.00,,,0.01,Rainwise IP-100,2013-08-03 13:21:00,
2013-08-03 09:26:00,63.0,63.0,29.35,East,90,3.0,4.0,100,0.00,,,0.01,Rainwise IP-100,2013-08-03 13:26:00,
2013-08-03 09:31:00,63.0,63.0,29.35,East,90,3.0,4.0,100,0.00,,,0.01,Rainwise IP-100,2013-08-03 13:31:00,
2013-08-03 09:36:00,63.0,63.0,29.35,East,90,3.0,4.0,100,0.00,,,0.01,Rainwise IP-100,2013-08-03 13:36:00,
2013-08-03 09:41:00,63.0,63.0,29.35,East,90,3.0,4.0,100,0.00,,,0.01,Rainwise IP-100,2013-08-03 13:41:00,
2013-08-03 09:46:00,63.0,63.0,29.35,East,90,3.0,4.0,100,0.00,,,0.01,Rainwise IP-100,2013-08-03 13:46:00,
2013-08-03 09:51:00,63.0,63.0,29.35,East,90,3.0,4.0,100,0.00,,,0.01,Rainwise IP-100,2013-08-03 13:51:00,
2013-08-03 09:56:00,63.0,63.0,29.35,East,90,3.0,4.0,100,0.00,,,0.01,Rainwise IP-100,2013-08-03 13:56:00,
2013-08-03 10:01:00,63.0,63.0,29.35,East,90,3.0,4.0,100,0.00,,,0.01,Rainwise IP-100,2013-08-03 14:01:00,
2013-08-03 10:06:00,63.0,63.0,29.35,East,90,3.0,4.0,100,0.00,,,0.01,Rainwise IP-100,2013-08-03 14:06:00,
2013-08-03 10:11:00,63.0,63.0,29.35,East,90,3.0,4.0,100,0.00,,,0.01,Rainwise IP-100,2013-08-03 14:11:00,
2013-08-03 10:16:00,63.0,63.0,29.35,East,90,3.0,4.0,100,0.00,,,0.01,Rainwise IP-100,2013-08-03 14:16:00,
2013-08-03 10:21:00,63.0,63.0,29.35,East,90,3.0,4.0,100,0.00,,,0.01,Rainwise IP-100,2013-08-03 14:21:00,
2013-08-03 10:26:00,63.0,63.0,29.35,East,90,3.0,4.0,100,0.00,,,0.01,Rainwise IP-100,2013-08-03 14:26:00,
2013-08-03 10:31:00,63.0,63.0,29.35,East,90,3.0,4.0,100,0.00,,,0.01,Rainwise IP-100,2013-08-03 14:31:00,
2013-08-03 10:36:00,63.0,63.0,29.35,East,90,3.0,4.0,100,0.00,,,0.01,Rainwise IP-100,2013-08-03 14:36:00,
2013-08-03 10:41:00,63.0,63.0,29.35,East,90,3.0,4.0,100,0.00,,,0.01,Rainwise IP-100,2013-08-03 14:41:00,
2013-08-03 10:46:00,63.0,63.0,29.35,East,90,3.0,4.0,100,0.00,,,0.01,Rainwise IP-100,2013-08-03 14:46:00,
2013-08-03 10:51:00,63.0,63.0,29.35,East,90,3.0,4.0,100,0.00,,,0.01,Rainwise IP-100,2013-08-03 14:51:00,
2013-08-03 10:56:00,63.0,63.0,29.35,East,90,3.0,4.0,100,0.00,,,0.01,Rainwise IP-100,2013-08-03 14:56:00,
2013-08-03 11:01:00,63.0,63.0,29.35,East,90,3.0,4.0,100,0.00,,,0.01,Rainwise IP-100,2013-08-03 15:01:00,
2013-08-03 11:06:00,63.0,63.0,29.35,East,90,3.0,4.0,100,0.00,,,0.01,Rainwise IP-100,2013-08-03 15:06:00,
2013-08-03 11:11:00,65.0,65.0,29.33,West,270,0.0,8.0,100,0.12,,,0.03,Rainwise IP-100,2013-08-03 15:11:00,
2013-08-03 11:16:00,64.0,64.0,29.33,West,270,3.0,9.0,100,0.24,,,0.05,Rainwise IP-100,2013-08-03 15:16:00,
2013-08-03 11:21:00,64.0,64.0,29.33,West,270,5.0,7.0,100,0.18,,,0.06,Rainwise IP-100,2013-08-03 15:21:00,
2013-08-03 11:26:00,64.0,64.0,29.33,West,270,3.0,12.0,100,0.12,,,0.07,Rainwise IP-100,2013-08-03 15:26:00,
2013-08-03 11:31:00,64.0,64.0,29.31,West,270,2.0,8.0,100,0.06,,,0.07,Rainwise IP-100,2013-08-03 15:31:00,
2013-08-03 11:36:00,65.0,65.0,29.31,West,270,3.0,8.0,100,0.00,,,0.07,Rainwise IP-100,2013-08-03 15:36:00,
2013-08-03 11:41:00,65.0,65.0,29.31,NNE,22,0.0,9.0,100,0.00,,,0.07,Rainwise IP-100,2013-08-03 15:41:00,
2013-08-03 11:46:00,65.0,65.0,29.31,West,270,1.0,7.0,100,0.00,,,0.07,Rainwise IP-100,2013-08-03 15:46:00,
2013-08-03 11:51:00,65.0,65.0,29.31,West,270,1.0,7.0,100,0.00,,,0.07,Rainwise IP-100,2013-08-03 15:51:00,
2013-08-03 11:56:00,66.0,66.0,29.31,West,270,4.0,9.0,100,0.00,,,0.07,Rainwise IP-100,2013-08-03 15:56:00,
2013-08-03 12:01:00,66.0,66.0,29.31,West,270,2.0,6.0,100,0.00,,,0.07,Rainwise IP-100,2013-08-03 16:01:00,
2013-08-03 12:06:00,66.0,66.0,29.31,SW,225,3.0,5.0,100,0.00,,,0.07,Rainwise IP-100,2013-08-03 16:06:00,
2013-08-03 12:11:00,66.0,66.0,29.30,West,270,1.0,4.0,100,0.00,,,0.07,Rainwise IP-100,2013-08-03 16:11:00,
2013-08-03 12:16:00,67.0,67.0,29.30,West,270,1.0,6.0,100,0.00,,,0.07,Rainwise IP-100,2013-08-03 16:16:00,
2013-08-03 12:21:00,68.0,66.0,29.30,West,270,0.0,7.0,96,0.00,,,0.07,Rainwise IP-100,2013-08-03 16:21:00,
2013-08-03 12:26:00,69.0,66.0,29.30,WSW,247,3.0,10.0,90,0.00,,,0.07,Rainwise IP-100,2013-08-03 16:26:00,
2013-08-03 12:31:00,69.0,63.0,29.30,West,270,8.0,9.0,83,0.00,,,0.07,Rainwise IP-100,2013-08-03 16:31:00,
2013-08-03 12:36:00,70.0,66.0,29.30,West,270,9.0,10.0,87,0.00,,,0.07,Rainwise IP-100,2013-08-03 16:36:00,
2013-08-03 12:41:00,70.0,63.0,29.30,SW,225,5.0,9.0,79,0.00,,,0.07,Rainwise IP-100,2013-08-03 16:41:00,
2013-08-03 12:46:00,70.0,62.0,29.30,WSW,247,6.0,9.0,76,0.00,,,0.07,Rainwise IP-100,2013-08-03 16:46:00,
2013-08-03 12:51:00,71.0,66.0,29.30,SW,225,5.0,9.0,84,0.00,,,0.07,Rainwise IP-100,2013-08-03 16:51:00,
2013-08-03 12:56:00,71.0,61.0,29.30,West,270,11.0,11.0,71,0.00,,,0.07,Rainwise IP-100,2013-08-03 16:56:00,
2013-08-03 13:01:00,71.0,61.0,29.30,West,270,11.0,11.0,71,0.00,,,0.07,Rainwise IP-100,2013-08-03 17:01:00,
2013-08-03 13:06:00,71.0,61.0,29.30,WSW,247,7.0,11.0,71,0.00,,,0.07,Rainwise IP-100,2013-08-03 17:06:00,
2013-08-03 13:11:00,71.0,61.0,29.30,WSW,247,7.0,11.0,71,0.00,,,0.07,Rainwise IP-100,2013-08-03 17:11:00,
2013-08-03 13:16:00,73.0,62.0,29.29,West,270,6.0,11.0,70,0.00,,,0.07,Rainwise IP-100,2013-08-03 17:16:00,
2013-08-03 13:21:00,73.0,62.0,29.29,West,270,5.0,11.0,68,0.00,,,0.07,Rainwise IP-100,2013-08-03 17:21:00,
2013-08-03 13:26:00,73.0,63.0,29.29,West,270,10.0,14.0,72,0.00,,,0.07,Rainwise IP-100,2013-08-03 17:26:00,
2013-08-03 13:31:00,73.0,62.0,29.29,WSW,247,10.0,14.0,68,0.00,,,0.07,Rainwise IP-100,2013-08-03 17:31:00,
2013-08-03 13:36:00,73.0,62.0,29.29,WSW,247,3.0,12.0,70,0.00,,,0.07,Rainwise IP-100,2013-08-03 17:36:00,
2013-08-03 13:41:00,73.0,60.0,29.29,West,270,7.0,12.0,65,0.00,,,0.07,Rainwise IP-100,2013-08-03 17:41:00,
2013-08-03 13:46:00,73.0,60.0,29.29,West,270,6.0,11.0,65,0.00,,,0.07,Rainwise IP-100,2013-08-03 17:46:00,
2013-08-03 13:51:00,73.0,62.0,29.29,WSW,247,7.0,15.0,68,0.00,,,0.07,Rainwise IP-100,2013-08-03 17:51:00,
2013-08-03 13:56:00,73.0,62.0,29.29,West,270,5.0,12.0,70,0.00,,,0.07,Rainwise IP-100,2013-08-03 17:56:00,
2013-08-03 14:01:00,73.0,62.0,29.29,West,270,3.0,11.0,69,0.00,,,0.07,Rainwise IP-100,2013-08-03 18:01:00,
2013-08-03 14:06:00,74.0,64.0,29.29,WSW,247,7.0,11.0,71,0.00,,,0.07,Rainwise IP-100,2013-08-03 18:06:00,
2013-08-03 14:11:00,73.0,62.0,29.29,West,270,2.0,12.0,70,0.00,,,0.07,Rainwise IP-100,2013-08-03 18:11:00,
2013-08-03 14:16:00,73.0,62.0,29.29,West,270,8.0,15.0,68,0.00,,,0.07,Rainwise IP-100,2013-08-03 18:16:00,
2013-08-03 14:21:00,73.0,62.0,29.29,WSW,247,4.0,9.0,69,0.00,,,0.07,Rainwise IP-100,2013-08-03 18:21:00,
2013-08-03 14:26:00,73.0,61.0,29.29,West,270,9.0,13.0,67,0.00,,,0.07,Rainwise IP-100,2013-08-03 18:26:00,
2013-08-03 14:31:00,74.0,63.0,29.29,SSW,202,5.0,15.0,68,0.00,,,0.07,Rainwise IP-100,2013-08-03 18:31:00,
2013-08-03 14:36:00,74.0,62.0,29.29,West,270,6.0,14.0,67,0.00,,,0.07,Rainwise IP-100,2013-08-03 18:36:00,
2013-08-03 14:41:00,74.0,63.0,29.30,SW,225,3.0,10.0,69,0.00,,,0.07,Rainwise IP-100,2013-08-03 18:41:00,
2013-08-03 14:46:00,74.0,62.0,29.30,West,270,4.0,15.0,67,0.00,,,0.07,Rainwise IP-100,2013-08-03 18:46:00,
2013-08-03 14:51:00,74.0,62.0,29.30,West,270,4.0,5.0,67,0.00,,,0.07,Rainwise IP-100,2013-08-03 18:51:00,
2013-08-03 14:56:00,75.0,64.0,29.30,SW,225,6.0,10.0,68,0.00,,,0.07,Rainwise IP-100,2013-08-03 18:56:00,
2013-08-03 15:01:00,75.0,62.0,29.30,SW,225,5.0,11.0,65,0.00,,,0.07,Rainwise IP-100,2013-08-03 19:01:00,
2013-08-03 15:06:00,75.0,63.0,29.30,WSW,247,12.0,17.0,66,0.00,,,0.07,Rainwise IP-100,2013-08-03 19:06:00,
2013-08-03 15:11:00,74.0,61.0,29.29,WSW,247,13.0,18.0,64,0.00,,,0.07,Rainwise IP-100,2013-08-03 19:11:00,
2013-08-03 15:16:00,74.0,62.0,29.29,West,270,7.0,15.0,66,0.00,,,0.07,Rainwise IP-100,2013-08-03 19:16:00,
2013-08-03 15:21:00,74.0,63.0,29.29,SW,225,8.0,9.0,68,0.00,,,0.07,Rainwise IP-100,2013-08-03 19:21:00,
2013-08-03 15:26:00,74.0,61.0,29.29,West,270,13.0,13.0,65,0.00,,,0.07,Rainwise IP-100,2013-08-03 19:26:00,
2013-08-03 15:31:00,74.0,61.0,29.29,West,270,8.0,13.0,65,0.00,,,0.07,Rainwise IP-100,2013-08-03 19:31:00,
2013-08-03 15:36:00,74.0,63.0,29.30,SW,225,8.0,12.0,69,0.00,,,0.07,Rainwise IP-100,2013-08-03 19:36:00,
2013-08-03 15:41:00,74.0,64.0,29.29,SW,225,4.0,8.0,70,0.00,,,0.07,Rainwise IP-100,2013-08-03 19:41:00,
2013-08-03 15:46:00,75.0,64.0,29.29,WSW,247,8.0,14.0,68,0.00,,,0.07,Rainwise IP-100,2013-08-03 19:46:00,
2013-08-03 15:51:00,74.0,62.0,29.29,West,270,11.0,14.0,66,0.00,,,0.07,Rainwise IP-100,2013-08-03 19:51:00,
2013-08-03 15:56:00,74.0,62.0,29.29,WSW,247,9.0,14.0,67,0.00,,,0.07,Rainwise IP-100,2013-08-03 19:56:00,
2013-08-03 16:01:00,74.0,62.0,29.29,West,270,12.0,14.0,67,0.00,,,0.07,Rainwise IP-100,2013-08-03 20:01:00,
2013-08-03 16:06:00,74.0,64.0,29.29,West,270,3.0,14.0,70,0.00,,,0.07,Rainwise IP-100,2013-08-03 20:06:00,
2013-08-03 16:11:00,74.0,64.0,29.29,SW,225,11.0,13.0,71,0.00,,,0.07,Rainwise IP-100,2013-08-03 20:11:00,
2013-08-03 16:16:00,74.0,64.0,29.29,WSW,247,11.0,13.0,71,0.00,,,0.07,Rainwise IP-100,2013-08-03 20:16:00,
2013-08-03 16:21:00,74.0,64.0,29.29,WSW,247,10.0,13.0,71,0.00,,,0.07,Rainwise IP-100,2013-08-03 20:21:00,
2013-08-03 16:26:00,74.0,64.0,29.29,West,270,7.0,10.0,71,0.00,,,0.07,Rainwise IP-100,2013-08-03 20:26:00,
2013-08-03 16:31:00,74.0,64.0,29.29,WSW,247,13.0,13.0,70,0.00,,,0.07,Rainwise IP-100,2013-08-03 20:31:00,
2013-08-03 16:36:00,74.0,64.0,29.29,West,270,3.0,13.0,71,0.00,,,0.07,Rainwise IP-100,2013-08-03 20:36:00,
2013-08-03 16:41:00,74.0,64.0,29.29,SW,225,6.0,12.0,71,0.00,,,0.07,Rainwise IP-100,2013-08-03 20:41:00,
2013-08-03 16:46:00,74.0,64.0,29.29,SW,225,6.0,8.0,71,0.00,,,0.07,Rainwise IP-100,2013-08-03 20:46:00,
2013-08-03 16:51:00,74.0,63.0,29.29,WSW,247,7.0,15.0,69,0.00,,,0.07,Rainwise IP-100,2013-08-03 20:51:00,
2013-08-03 16:56:00,74.0,63.0,29.29,SW,225,14.0,17.0,69,0.00,,,0.07,Rainwise IP-100,2013-08-03 20:56:00,
2013-08-03 17:01:00,74.0,63.0,29.29,SW,225,11.0,16.0,68,0.00,,,0.07,Rainwise IP-100,2013-08-03 21:01:00,
2013-08-03 17:06:00,73.0,62.0,29.29,West,270,9.0,14.0,68,0.00,,,0.07,Rainwise IP-100,2013-08-03 21:06:00,
2013-08-03 17:11:00,72.0,63.0,29.29,West,270,8.0,13.0,74,0.00,,,0.07,Rainwise IP-100,2013-08-03 21:11:00,
2013-08-03 17:16:00,71.0,61.0,29.29,WSW,247,10.0,12.0,73,0.00,,,0.07,Rainwise IP-100,2013-08-03 21:16:00,
2013-08-03 17:21:00,71.0,63.0,29.29,West,270,5.0,11.0,78,0.00,,,0.07,Rainwise IP-100,2013-08-03 21:21:00,
2013-08-03 17:26:00,70.0,63.0,29.29,WSW,247,4.0,13.0,78,0.00,,,0.07,Rainwise IP-100,2013-08-03 21:26:00,
2013-08-03 17:31:00,70.0,63.0,29.29,West,270,9.0,9.0,80,0.00,,,0.07,Rainwise IP-100,2013-08-03 21:31:00,
2013-08-03 17:36:00,70.0,64.0,29.29,NNE,22,3.0,9.0,82,0.00,,,0.07,Rainwise IP-100,2013-08-03 21:36:00,
2013-08-03 17:41:00,69.0,64.0,29.30,West,270,0.0,4.0,84,0.00,,,0.07,Rainwise IP-100,2013-08-03 21:41:00,
2013-08-03 17:46:00,68.0,63.0,29.30,West,270,0.0,4.0,86,0.00,,,0.07,Rainwise IP-100,2013-08-03 21:46:00,
2013-08-03 17:51:00,68.0,64.0,29.30,WSW,247,1.0,4.0,88,0.30,,,0.12,Rainwise IP-100,2013-08-03 21:51:00,
2013-08-03 17:56:00,68.0,65.0,29.30,West,270,2.0,5.0,92,0.30,,,0.12,Rainwise IP-100,2013-08-03 21:56:00,
2013-08-03 18:01:00,69.0,67.0,29.30,West,270,4.0,5.0,94,0.00,,,0.12,Rainwise IP-100,2013-08-03 22:01:00,
2013-08-03 18:06:00,69.0,66.0,29.30,West,270,0.0,5.0,93,0.00,,,0.12,Rainwise IP-100,2013-08-03 22:06:00,
2013-08-03 18:11:00,68.0,66.0,29.30,NE,45,1.0,3.0,93,0.00,,,0.12,Rainwise IP-100,2013-08-03 22:11:00,
2013-08-03 18:16:00,68.0,66.0,29.30,NE,45,0.0,3.0,93,0.00,,,0.12,Rainwise IP-100,2013-08-03 22:16:00,
2013-08-03 18:21:00,68.0,66.0,29.31,SE,135,4.0,4.0,93,0.00,,,0.12,Rainwise IP-100,2013-08-03 22:21:00,
2013-08-03 18:26:00,68.0,66.0,29.31,East,90,3.0,4.0,93,0.00,,,0.12,Rainwise IP-100,2013-08-03 22:26:00,
2013-08-03 18:31:00,68.0,66.0,29.31,SE,135,1.0,4.0,93,0.00,,,0.12,Rainwise IP-100,2013-08-03 22:31:00,
2013-08-03 18:36:00,68.0,66.0,29.31,East,90,3.0,5.0,93,0.00,,,0.12,Rainwise IP-100,2013-08-03 22:36:00,
2013-08-03 18:41:00,67.0,65.0,29.31,East,90,3.0,4.0,93,0.00,,,0.12,Rainwise IP-100,2013-08-03 22:41:00,
2013-08-03 18:46:00,67.0,65.0,29.31,East,90,0.0,4.0,94,0.00,,,0.12,Rainwise IP-100,2013-08-03 22:46:00,
2013-08-03 18:51:00,67.0,65.0,29.31,East,90,0.0,2.0,94,0.00,,,0.12,Rainwise IP-100,2013-08-03 22:51:00,
2013-08-03 18:56:00,67.0,65.0,29.31,East,90,1.0,2.0,94,0.00,,,0.12,Rainwise IP-100,2013-08-03 22:56:00,
2013-08-03 19:01:00,67.0,66.0,29.31,East,90,0.0,3.0,95,0.00,,,0.12,Rainwise IP-100,2013-08-03 23:01:00,
2013-08-03 19:06:00,67.0,66.0,29.31,ESE,112,0.0,3.0,95,0.00,,,0.12,Rainwise IP-100,2013-08-03 23:06:00,
2013-08-03 19:11:00,67.0,65.0,29.31,SE,135,3.0,0.0,94,0.00,,,0.12,Rainwise IP-100,2013-08-03 23:11:00,
2013-08-03 19:16:00,67.0,65.0,29.31,SSE,157,0.0,3.0,94,0.00,,,0.12,Rainwise IP-100,2013-08-03 23:16:00,
2013-08-03 19:21:00,67.0,65.0,29.30,SSE,157,0.0,0.0,94,0.00,,,0.12,Rainwise IP-100,2013-08-03 23:21:00,
2013-08-03 19:26:00,67.0,66.0,29.30,ENE,67,4.0,0.0,95,0.00,,,0.12,Rainwise IP-100,2013-08-03 23:26:00,
2013-08-03 19:31:00,66.0,64.0,29.30,NE,45,0.0,4.0,95,0.00,,,0.12,Rainwise IP-100,2013-08-03 23:31:00,
2013-08-03 19:36:00,66.0,64.0,29.30,NE,45,0.0,0.0,96,0.00,,,0.12,Rainwise IP-100,2013-08-03 23:36:00,
2013-08-03 19:41:00,65.0,64.0,29.29,NE,45,3.0,0.0,96,0.00,,,0.12,Rainwise IP-100,2013-08-03 23:41:00,
2013-08-03 19:46:00,65.0,64.0,29.29,NE,45,3.0,5.0,97,0.00,,,0.12,Rainwise IP-100,2013-08-03 23:46:00,
2013-08-03 19:51:00,65.0,64.0,29.30,West,270,1.0,4.0,98,0.00,,,0.12,Rainwise IP-100,2013-08-03 23:51:00,
2013-08-03 19:56:00,65.0,64.0,29.30,NE,45,4.0,5.0,99,0.00,,,0.12,Rainwise IP-100,2013-08-03 23:56:00,
2013-08-03 20:01:00,64.0,63.0,29.30,West,270,1.0,5.0,99,0.00,,,0.12,Rainwise IP-100,2013-08-04 00:01:00,
2013-08-03 20:06:00,64.0,63.0,29.30,NE,45,1.0,3.0,99,0.00,,,0.12,Rainwise IP-100,2013-08-04 00:06:00,
2013-08-03 20:11:00,64.0,64.0,29.31,NE,45,0.0,3.0,100,0.00,,,0.12,Rainwise IP-100,2013-08-04 00:11:00,
2013-08-03 20:16:00,63.0,62.0,29.31,NE,45,0.0,0.0,98,0.00,,,0.12,Rainwise IP-100,2013-08-04 00:16:00,
2013-08-03 20:21:00,63.0,62.0,29.31,NE,45,0.0,0.0,99,0.00,,,0.12,Rainwise IP-100,2013-08-04 00:21:00,
2013-08-03 20:26:00,63.0,62.0,29.31,NE,45,0.0,0.0,99,0.00,,,0.12,Rainwise IP-100,2013-08-04 00:26:00,
2013-08-03 20:31:00,63.0,62.0,29.31,NE,45,3.0,3.0,99,0.00,,,0.12,Rainwise IP-100,2013-08-04 00:31:00,
2013-08-03 20:36:00,62.0,61.0,29.31,NE,45,1.0,3.0,99,0.00,,,0.12,Rainwise IP-100,2013-08-04 00:36:00,
2013-08-03 20:41:00,62.0,61.0,29.31,NE,45,0.0,2.0,99,0.00,,,0.12,Rainwise IP-100,2013-08-04 00:41:00,
2013-08-03 20:46:00,62.0,62.0,29.31,NE,45,0.0,0.0,100,0.00,,,0.12,Rainwise IP-100,2013-08-04 00:46:00,
2013-08-03 20:51:00,62.0,62.0,29.31,West,270,0.0,4.0,100,0.00,,,0.12,Rainwise IP-100,2013-08-04 00:51:00,
2013-08-03 20:56:00,61.0,61.0,29.31,West,270,0.0,1.0,100,0.00,,,0.12,Rainwise IP-100,2013-08-04 00:56:00,
2013-08-03 21:01:00,61.0,61.0,29.31,West,270,0.0,2.0,100,0.00,,,0.12,Rainwise IP-100,2013-08-04 01:01:00,
2013-08-03 21:06:00,61.0,61.0,29.31,West,270,0.0,2.0,100,0.00,,,0.12,Rainwise IP-100,2013-08-04 01:06:00,
2013-08-03 21:11:00,61.0,61.0,29.31,West,270,0.0,0.0,100,0.00,,,0.12,Rainwise IP-100,2013-08-04 01:11:00,
2013-08-03 21:16:00,61.0,61.0,29.31,West,270,0.0,0.0,100,0.00,,,0.12,Rainwise IP-100,2013-08-04 01:16:00,
2013-08-03 21:21:00,61.0,61.0,29.31,West,270,0.0,0.0,100,0.00,,,0.12,Rainwise IP-100,2013-08-04 01:21:00,
2013-08-03 21:26:00,60.0,60.0,29.31,West,270,1.0,2.0,100,0.00,,,0.12,Rainwise IP-100,2013-08-04 01:26:00,
2013-08-03 21:31:00,60.0,60.0,29.31,West,270,0.0,2.0,100,0.00,,,0.12,Rainwise IP-100,2013-08-04 01:31:00,
2013-08-03 21:36:00,60.0,60.0,29.31,West,270,0.0,0.0,100,0.00,,,0.12,Rainwise IP-100,2013-08-04 01:36:00,
2013-08-03 21:41:00,60.0,60.0,29.31,West,270,0.0,0.0,100,0.00,,,0.12,Rainwise IP-100,2013-08-04 01:41:00,
2013-08-03 21:46:00,60.0,60.0,29.31,West,270,0.0,0.0,100,0.00,,,0.12,Rainwise IP-100,2013-08-04 01:46:00,
2013-08-03 21:51:00,60.0,60.0,29.31,West,270,0.0,0.0,100,0.00,,,0.12,Rainwise IP-100,2013-08-04 01:51:00,
2013-08-03 21:56:00,60.0,60.0,29.31,West,270,0.0,0.0,100,0.00,,,0.12,Rainwise IP-100,2013-08-04 01:56:00,
2013-08-03 22:01:00,59.0,59.0,29.32,West,270,0.0,0.0,100,0.00,,,0.12,Rainwise IP-100,2013-08-04 02:01:00,
2013-08-03 22:06:00,59.0,59.0,29.32,West,270,0.0,0.0,100,0.00,,,0.12,Rainwise IP-100,2013-08-04 02:06:00,
2013-08-03 22:11:00,59.0,59.0,29.31,West,270,0.0,3.0,100,0.00,,,0.12,Rainwise IP-100,2013-08-04 02:11:00,
2013-08-03 22:16:00,59.0,59.0,29.31,West,270,0.0,0.0,100,0.00,,,0.12,Rainwise IP-100,2013-08-04 02:16:00,
2013-08-03 22:21:00,59.0,59.0,29.31,West,270,0.0,0.0,100,0.00,,,0.12,Rainwise IP-100,2013-08-04 02:21:00,
2013-08-03 22:26:00,59.0,59.0,29.31,West,270,0.0,0.0,100,0.00,,,0.12,Rainwise IP-100,2013-08-04 02:26:00,
2013-08-03 22:31:00,58.0,58.0,29.31,West,270,0.0,0.0,100,0.00,,,0.12,Rainwise IP-100,2013-08-04 02:31:00,
2013-08-03 22:36:00,58.0,58.0,29.31,West,270,0.0,0.0,100,0.00,,,0.12,Rainwise IP-100,2013-08-04 02:36:00,
2013-08-03 22:41:00,59.0,59.0,29.31,West,270,0.0,0.0,100,0.00,,,0.12,Rainwise IP-100,2013-08-04 02:41:00,
2013-08-03 22:46:00,59.0,59.0,29.31,West,270,0.0,0.0,100,0.00,,,0.12,Rainwise IP-100,2013-08-04 02:46:00,
2013-08-03 22:51:00,59.0,59.0,29.31,West,270,0.0,0.0,100,0.00,,,0.12,Rainwise IP-100,2013-08-04 02:51:00,
2013-08-03 23:01:00,59.0,59.0,29.30,West,270,0.0,0.0,100,0.00,,,0.12,Rainwise IP-100,2013-08-04 03:01:00,
2013-08-03 23:02:00,59.0,59.0,29.30,West,270,0.0,0.0,100,0.00,,,0.12,Rainwise IP-100,2013-08-04 03:02:00,
2013-08-03 23:06:00,59.0,59.0,29.30,West,270,3.0,4.0,100,0.00,,,0.12,Rainwise IP-100,2013-08-04 03:06:00,
2013-08-03 23:11:00,59.0,59.0,29.30,West,270,0.0,4.0,100,0.00,,,0.12,Rainwise IP-100,2013-08-04 03:11:00,
2013-08-03 23:16:00,58.0,58.0,29.30,West,270,0.0,0.0,100,0.00,,,0.12,Rainwise IP-100,2013-08-04 03:16:00,
2013-08-03 23:21:00,58.0,58.0,29.30,West,270,0.0,0.0,100,0.00,,,0.12,Rainwise IP-100,2013-08-04 03:21:00,
2013-08-03 23:26:00,58.0,58.0,29.30,West,270,0.0,0.0,100,0.00,,,0.12,Rainwise IP-100,2013-08-04 03:26:00,
2013-08-03 23:31:00,58.0,58.0,29.30,West,270,0.0,0.0,100,0.00,,,0.12,Rainwise IP-100,2013-08-04 03:31:00,
2013-08-03 23:36:00,58.0,58.0,29.30,West,270,0.0,0.0,100,0.00,,,0.12,Rainwise IP-100,2013-08-04 03:36:00,
2013-08-03 23:41:00,58.0,58.0,29.30,West,270,0.0,0.0,100,0.00,,,0.12,Rainwise IP-100,2013-08-04 03:41:00,
2013-08-03 23:46:00,58.0,58.0,29.30,North,360,2.0,2.0,100,0.00,,,0.12,Rainwise IP-100,2013-08-04 03:46:00,
2013-08-03 23:51:00,59.0,59.0,29.30,North,360,3.0,3.0,100,0.00,,,0.12,Rainwise IP-100,2013-08-04 03:51:00,
2013-08-03 23:56:00,59.0,59.0,29.31,North,360,0.0,3.0,100,0.00,,,0.12,Rainwise IP-100,2013-08-04 03:56:00,